Time,TemperatureF,DewpointF,PressureIn,WindDirection,WindDirectionDegrees,WindSpeedMPH,WindSpeedGustMPH,Humidity,HourlyPrecipIn,Conditions,Clouds,dailyrainin,SoftwareType,DateUTC
2013-03-30 00:13:00,31.2,29.0,30.04,West,276,0.0,0.0,90,0.00,,,0.00,weatherlink.com 1.10,2013-03-30 04:13:00,
2013-03-30 00:28:00,31.0,29.0,30.04,West,275,0.0,0.0,91,0.00,,,0.00,weatherlink.com 1.10,2013-03-30 04:28:00,
2013-03-30 00:43:00,30.7,28.0,30.04,West,275,0.0,1.0,91,0.00,,,0.00,weatherlink.com 1.10,2013-03-30 04:43:00,
2013-03-30 00:58:00,30.8,29.0,30.04,West,275,0.0,1.0,91,0.00,,,0.00,weatherlink.com 1.10,2013-03-30 04:58:00,
2013-03-30 01:13:00,30.9,29.0,30.04,West,275,0.0,0.0,92,0.00,,,0.00,weatherlink.com 1.10,2013-03-30 05:13:00,
2013-03-30 01:28:00,31.0,29.0,30.04,West,275,0.0,0.0,91,0.00,,,0.00,weatherlink.com 1.10,2013-03-30 05:28:00,
2013-03-30 01:43:00,31.0,29.0,30.04,West,275,0.0,0.0,91,0.00,,,0.00,weatherlink.com 1.10,2013-03-30 05:43:00,
2013-03-30 01:58:00,30.9,29.0,30.04,West,275,0.0,0.0,91,0.00,,,0.00,weatherlink.com 1.10,2013-03-30 05:58:00,
2013-03-30 02:13:00,30.9,29.0,30.04,West,275,0.0,0.0,92,0.00,,,0.00,weatherlink.com 1.10,2013-03-30 06:13:00,
2013-03-30 02:28:00,31.0,29.0,30.04,West,275,0.0,0.0,92,0.00,,,0.00,weatherlink.com 1.10,2013-03-30 06:28:00,
2013-03-30 02:43:00,30.9,29.0,30.04,West,275,0.0,0.0,92,0.00,,,0.00,weatherlink.com 1.10,2013-03-30 06:43:00,
2013-03-30 02:58:00,30.9,29.0,30.04,West,275,0.0,0.0,93,0.00,,,0.00,weatherlink.com 1.10,2013-03-30 06:58:00,
2013-03-30 03:13:00,31.1,29.0,30.04,West,275,0.0,0.0,93,0.00,,,0.00,weatherlink.com 1.10,2013-03-30 07:13:00,
2013-03-30 03:29:00,31.1,29.0,30.04,West,275,0.0,0.0,92,0.00,,,0.00,weatherlink.com 1.10,2013-03-30 07:29:00,
2013-03-30 03:43:00,31.0,29.0,30.03,West,275,0.0,0.0,92,0.00,,,0.00,weatherlink.com 1.10,2013-03-30 07:43:00,
2013-03-30 03:58:00,30.8,29.0,30.03,West,275,0.0,2.0,93,0.00,,,0.00,weatherlink.com 1.10,2013-03-30 07:58:00,
2013-03-30 04:13:00,30.4,28.0,30.04,West,275,0.0,1.0,92,0.00,,,0.00,weatherlink.com 1.10,2013-03-30 08:13:00,
2013-03-30 04:28:00,30.1,28.0,30.04,West,275,0.0,1.0,93,0.00,,,0.00,weatherlink.com 1.10,2013-03-30 08:28:00,
2013-03-30 04:43:00,29.7,28.0,30.04,West,275,0.0,0.0,93,0.00,,,0.00,weatherlink.com 1.10,2013-03-30 08:43:00,
2013-03-30 04:58:00,29.2,28.0,30.04,West,275,0.0,0.0,94,0.00,,,0.00,weatherlink.com 1.10,2013-03-30 08:58:00,
2013-03-30 05:13:00,28.8,27.0,30.04,West,275,0.0,0.0,94,0.00,,,0.00,weatherlink.com 1.10,2013-03-30 09:13:00,
2013-03-30 05:28:00,28.4,27.0,30.04,West,275,0.0,0.0,94,0.00,,,0.00,weatherlink.com 1.10,2013-03-30 09:28:00,
2013-03-30 05:43:00,28.2,27.0,30.04,West,275,0.0,0.0,94,0.00,,,0.00,weatherlink.com 1.10,2013-03-30 09:43:00,
2013-03-30 05:58:00,27.9,26.0,30.05,West,275,0.0,0.0,94,0.00,,,0.00,weatherlink.com 1.10,2013-03-30 09:58:00,
2013-03-30 06:28:00,27.5,26.0,30.05,West,275,0.0,1.0,94,0.00,,,0.00,weatherlink.com 1.10,2013-03-30 10:28:00,
2013-03-30 06:43:00,27.4,26.0,30.05,West,275,0.0,2.0,95,0.00,,,0.00,weatherlink.com 1.10,2013-03-30 10:43:00,
2013-03-30 06:58:00,27.4,26.0,30.06,West,275,0.0,0.0,95,0.00,,,0.00,weatherlink.com 1.10,2013-03-30 10:58:00,
2013-03-30 07:14:00,27.6,26.0,30.06,West,275,0.0,0.0,95,0.00,,,0.00,weatherlink.com 1.10,2013-03-30 11:14:00,
2013-03-30 07:29:00,28.7,28.0,30.07,West,275,0.0,0.0,96,0.00,,,0.00,weatherlink.com 1.10,2013-03-30 11:29:00,
2013-03-30 07:44:00,31.1,30.0,30.07,West,275,0.0,0.0,96,0.01,,,0.01,weatherlink.com 1.10,2013-03-30 11:44:00,
2013-03-30 07:59:00,33.7,32.0,30.07,West,275,0.0,0.0,93,0.01,,,0.01,weatherlink.com 1.10,2013-03-30 11:59:00,
2013-03-30 08:14:00,35.5,31.0,30.07,West,277,1.0,3.0,83,0.01,,,0.01,weatherlink.com 1.10,2013-03-30 12:14:00,
2013-03-30 08:29:00,38.6,31.0,30.07,NW,309,2.0,7.0,74,0.01,,,0.01,weatherlink.com 1.10,2013-03-30 12:29:00,
2013-03-30 08:44:00,40.4,30.0,30.07,NW,308,2.0,5.0,67,0.00,,,0.01,weatherlink.com 1.10,2013-03-30 12:44:00,
2013-03-30 08:59:00,41.1,30.0,30.07,West,273,3.0,8.0,64,0.00,,,0.01,weatherlink.com 1.10,2013-03-30 12:59:00,
2013-03-30 09:14:00,42.1,30.0,30.07,NW,311,0.0,5.0,62,0.00,,,0.01,weatherlink.com 1.10,2013-03-30 13:14:00,
2013-03-30 09:29:00,42.9,28.0,30.07,West,273,3.0,8.0,57,0.00,,,0.01,weatherlink.com 1.10,2013-03-30 13:29:00,
2013-03-30 09:44:00,43.0,27.0,30.06,West,261,1.0,9.0,54,0.00,,,0.01,weatherlink.com 1.10,2013-03-30 13:44:00,
2013-03-30 09:59:00,43.7,28.0,30.06,NW,312,3.0,8.0,54,0.00,,,0.01,weatherlink.com 1.10,2013-03-30 13:59:00,
2013-03-30 10:14:00,44.6,27.0,30.06,WNW,289,0.0,7.0,50,0.00,,,0.01,weatherlink.com 1.10,2013-03-30 14:14:00,
2013-03-30 10:29:00,45.3,26.0,30.06,WNW,288,5.0,12.0,47,0.00,,,0.01,weatherlink.com 1.10,2013-03-30 14:29:00,
2013-03-30 10:45:00,45.7,25.0,30.06,West,265,8.0,13.0,45,0.00,,,0.01,weatherlink.com 1.10,2013-03-30 14:45:00,
2013-03-30 10:59:00,46.3,26.0,30.06,West,281,3.0,8.0,46,0.00,,,0.01,weatherlink.com 1.10,2013-03-30 14:59:00,
2013-03-30 11:14:00,46.2,22.0,30.06,WSW,247,13.0,19.0,38,0.00,,,0.01,weatherlink.com 1.10,2013-03-30 15:14:00,
2013-03-30 11:29:00,46.7,21.0,30.05,NW,309,3.0,16.0,37,0.00,,,0.01,weatherlink.com 1.10,2013-03-30 15:29:00,
2013-03-30 11:44:00,47.1,24.0,30.05,NW,317,11.0,14.0,40,0.00,,,0.01,weatherlink.com 1.10,2013-03-30 15:44:00,
2013-03-30 11:59:00,47.6,24.0,30.05,WNW,303,5.0,11.0,39,0.00,,,0.01,weatherlink.com 1.10,2013-03-30 15:59:00,
2013-03-30 12:14:00,47.7,24.0,30.05,NW,311,3.0,12.0,40,0.00,,,0.01,weatherlink.com 1.10,2013-03-30 16:14:00,
2013-03-30 12:29:00,48.1,23.0,30.05,WNW,302,5.0,14.0,37,0.00,,,0.01,weatherlink.com 1.10,2013-03-30 16:29:00,
2013-03-30 12:44:00,48.5,22.0,30.04,West,275,5.0,12.0,36,0.00,,,0.01,weatherlink.com 1.10,2013-03-30 16:44:00,
2013-03-30 12:59:00,48.9,22.0,30.04,West,273,1.0,10.0,35,0.00,,,0.01,weatherlink.com 1.10,2013-03-30 16:59:00,
2013-03-30 13:14:00,48.9,23.0,30.03,West,274,6.0,11.0,37,0.00,,,0.01,weatherlink.com 1.10,2013-03-30 17:14:00,
2013-03-30 13:29:00,50.0,26.0,30.03,West,277,4.0,8.0,39,0.00,,,0.01,weatherlink.com 1.10,2013-03-30 17:29:00,
2013-03-30 13:44:00,49.7,22.0,30.02,WSW,242,12.0,19.0,34,0.00,,,0.01,weatherlink.com 1.10,2013-03-30 17:44:00,
2013-03-30 14:00:00,50.0,24.0,30.02,NNW,331,2.0,8.0,37,0.00,,,0.01,weatherlink.com 1.10,2013-03-30 18:00:00,
2013-03-30 14:15:00,50.5,25.0,30.01,NNW,330,5.0,11.0,37,0.00,,,0.01,weatherlink.com 1.10,2013-03-30 18:15:00,
2013-03-30 14:30:00,50.7,21.0,30.01,WNW,288,5.0,12.0,31,0.00,,,0.01,weatherlink.com 1.10,2013-03-30 18:30:00,
2013-03-30 14:45:00,50.8,24.0,30.00,NNW,333,3.0,13.0,35,0.00,,,0.01,weatherlink.com 1.10,2013-03-30 18:45:00,
2013-03-30 15:00:00,51.2,23.0,30.00,NW,321,3.0,7.0,33,0.00,,,0.01,weatherlink.com 1.10,2013-03-30 19:00:00,
2013-03-30 15:15:00,50.9,20.0,30.00,WNW,299,3.0,15.0,30,0.00,,,0.01,weatherlink.com 1.10,2013-03-30 19:15:00,
2013-03-30 15:30:00,50.7,21.0,29.99,SW,229,11.0,13.0,31,0.00,,,0.01,weatherlink.com 1.10,2013-03-30 19:30:00,
2013-03-30 15:45:00,50.9,20.0,29.99,WSW,250,5.0,16.0,30,0.00,,,0.01,weatherlink.com 1.10,2013-03-30 19:45:00,
2013-03-30 16:00:00,50.6,19.0,29.98,West,270,4.0,14.0,29,0.00,,,0.01,weatherlink.com 1.10,2013-03-30 20:00:00,
2013-03-30 16:15:00,50.9,21.0,29.99,West,281,7.0,15.0,31,0.00,,,0.01,weatherlink.com 1.10,2013-03-30 20:15:00,
2013-03-30 16:30:00,50.9,20.0,29.98,WNW,285,10.0,14.0,29,0.00,,,0.01,weatherlink.com 1.10,2013-03-30 20:30:00,
2013-03-30 16:45:00,50.8,20.0,29.99,WNW,296,7.0,13.0,30,0.00,,,0.01,weatherlink.com 1.10,2013-03-30 20:45:00,
2013-03-30 17:00:00,50.3,19.0,29.99,West,271,7.0,13.0,29,0.00,,,0.01,weatherlink.com 1.10,2013-03-30 21:00:00,
2013-03-30 17:15:00,50.7,21.0,29.99,West,281,9.0,10.0,31,0.00,,,0.01,weatherlink.com 1.10,2013-03-30 21:15:00,
2013-03-30 17:30:00,50.1,19.0,29.99,West,267,7.0,13.0,29,0.00,,,0.01,weatherlink.com 1.10,2013-03-30 21:30:00,
2013-03-30 17:45:00,49.8,18.0,29.99,WNW,284,6.0,11.0,28,0.00,,,0.01,weatherlink.com 1.10,2013-03-30 21:45:00,
2013-03-30 18:02:00,49.5,17.0,30.00,NW,313,1.0,9.0,27,0.00,,,0.01,weatherlink.com 1.10,2013-03-30 22:02:00,
2013-03-30 18:15:00,49.0,18.0,30.01,NW,315,5.0,8.0,29,0.00,,,0.01,weatherlink.com 1.10,2013-03-30 22:15:00,
2013-03-30 18:30:00,48.4,18.0,30.02,NW,304,3.0,8.0,30,0.00,,,0.01,weatherlink.com 1.10,2013-03-30 22:30:00,
2013-03-30 18:45:00,47.9,18.0,30.03,WNW,303,2.0,6.0,30,0.00,,,0.01,weatherlink.com 1.10,2013-03-30 22:45:00,
2013-03-30 19:00:00,46.1,17.0,30.03,WNW,303,0.0,2.0,31,0.00,,,0.01,weatherlink.com 1.10,2013-03-30 23:00:00,
2013-03-30 19:15:00,44.3,21.0,30.04,WNW,303,0.0,0.0,39,0.00,,,0.01,weatherlink.com 1.10,2013-03-30 23:15:00,
2013-03-30 19:30:00,42.0,21.0,30.04,WNW,303,0.0,0.0,44,0.00,,,0.01,weatherlink.com 1.10,2013-03-30 23:30:00,
2013-03-30 19:45:00,39.9,22.0,30.04,WNW,303,0.0,0.0,49,0.00,,,0.01,weatherlink.com 1.10,2013-03-30 23:45:00,
2013-03-30 20:00:00,38.0,22.0,30.05,WNW,303,0.0,0.0,53,0.00,,,0.01,weatherlink.com 1.10,2013-03-31 00:00:00,
2013-03-30 20:15:00,36.0,20.0,30.06,WNW,303,0.0,0.0,53,0.00,,,0.01,weatherlink.com 1.10,2013-03-31 00:15:00,
2013-03-30 20:30:00,34.5,23.0,30.06,WNW,303,0.0,0.0,63,0.00,,,0.01,weatherlink.com 1.10,2013-03-31 00:30:00,
2013-03-30 20:45:00,33.3,22.0,30.07,WNW,303,0.0,0.0,63,0.00,,,0.01,weatherlink.com 1.10,2013-03-31 00:45:00,
2013-03-30 21:00:00,32.1,22.0,30.08,WNW,303,0.0,0.0,67,0.00,,,0.01,weatherlink.com 1.10,2013-03-31 01:00:00,
2013-03-30 21:15:00,31.1,21.0,30.08,WNW,303,0.0,0.0,67,0.00,,,0.01,weatherlink.com 1.10,2013-03-31 01:15:00,
2013-03-30 21:30:00,30.3,22.0,30.09,WNW,303,0.0,0.0,71,0.00,,,0.01,weatherlink.com 1.10,2013-03-31 01:30:00,
2013-03-30 21:45:00,29.6,22.0,30.09,WNW,303,0.0,0.0,72,0.00,,,0.01,weatherlink.com 1.10,2013-03-31 01:45:00,
2013-03-30 22:00:00,29.0,22.0,30.09,WNW,303,0.0,0.0,75,0.00,,,0.01,weatherlink.com 1.10,2013-03-31 02:00:00,
2013-03-30 22:15:00,28.6,22.0,30.09,WNW,303,0.0,0.0,76,0.00,,,0.01,weatherlink.com 1.10,2013-03-31 02:15:00,
2013-03-30 22:30:00,28.0,22.0,30.09,WNW,303,0.0,0.0,77,0.00,,,0.01,weatherlink.com 1.10,2013-03-31 02:30:00,
2013-03-30 22:45:00,27.6,22.0,30.09,WNW,303,0.0,0.0,79,0.00,,,0.01,weatherlink.com 1.10,2013-03-31 02:45:00,
2013-03-30 23:00:00,27.0,22.0,30.09,WNW,303,0.0,0.0,80,0.00,,,0.01,weatherlink.com 1.10,2013-03-31 03:00:00,
2013-03-30 23:15:00,26.6,22.0,30.10,WNW,303,0.0,0.0,82,0.00,,,0.01,weatherlink.com 1.10,2013-03-31 03:15:00,
2013-03-30 23:30:00,26.3,22.0,30.10,WNW,303,0.0,0.0,85,0.00,,,0.01,weatherlink.com 1.10,2013-03-31 03:30:00,
2013-03-30 23:45:00,26.2,22.0,30.10,WNW,303,0.0,0.0,85,0.00,,,0.01,weatherlink.com 1.10,2013-03-31 03:45:00,